User: anonymous   Login
Location: Unspecified
(0.0000°N, 0.0000°E)
Time: 21:32:01
(UTC+00:00)
Language:

PLEIADES HR1 - Orbit

View from above orbital plane
View from above orbital plane
View from above satellite
View from above satellite

Ground track
Ground track

The orbit is defined by the following mean orbital elements,

1 38012U          26145.64482480 +.00000000 +00000-0 +11593-3 0 00003
2 38012  98.1974 221.0495 0001280 104.9664  63.8257 14.58554746    08
Epoch (UTC): 25 May 2026 15:28:32
Eccentricity: 0.0001280
inclination: 98.1974°
perigee height: 697 km
apogee height: 699 km
right ascension of ascending node: 221.0495°
argument of perigee: 104.9664°
revolutions per day: 14.58554746
mean anomaly at epoch: 63.8257°

The dashed part of the orbit path shows where the satellite is in the earth's shadow,  

DLR